7 * 24
多渠道服务支持
STARLINK-37148(NORAD编号68310)是美国SpaceX公司星链(Starlink)卫星互联网星座的一员,属于低地球轨道(LEO)通信卫星。星链项目旨在通过部署近万颗低轨卫星,为全球提供高速低延迟宽带互联网服务,尤其覆盖地面基础设施难以到达的偏远区域。该卫星配备氩气离子推进系统用于轨道机动与脱轨处置,采用相控阵天线技术实现高带宽通信,当前处于在轨运行状态,运行于近地轨道,参与构建全球卫星互联网通信网络,支撑星链的民用互联网接入及特殊场景通信服务。
美国
(US)
| 数据来源 | 国际轨道数据 |
| 星历时间: | 2026-06-10T12:00:02+0800 8小时前 查看轨道信息 |
| 半长轴: | 6797.317km |
| 偏心率: | 0.0000755 |
| 轨道倾角: | 97.284° |
| 近地点辐角 | 88.075° |
| 升交点赤经 | 288.002° |
| 平近点角 | 132.740° |
| 近地点: | 418.666km |
| 远地点: | 419.694km |
| 周期: | 92.954分钟 |
| 每日圈数: | 15.491609 |